Theta_e
322 323 323 324 323 321 326 328 330 332 332 338 349 349 349 348 350 353 348 348 343 331 336 343 341 338 336 334 335 335 334 332 327 326 323 323 323 323 323 322 322 322 323 323 321 320 321 324 328
322 322 323 325 322 323 323 327 329 330 333 346 350 350 348 348 349 351 350 352 343 331 332 342 341 338 337 337 338 337 336 332 325 325 324 323 323 323 322 322 323 323 322 322 322 323 324 326 327
320 321 322 320 319 322 325 326 329 331 335 334 346 348 349 349 350 352 352 349 337 329 332 340 342 340 338 339 341 340 338 334 327 324 324 324 323 323 323 323 323 322 322 322 323 324 325 326 325
319 321 322 320 320 321 324 325 326 328 334 341 347 348 349 349 348 349 351 346 334 329 332 339 342 341 339 340 341 342 340 337 332 324 323 324 325 324 324 324 323 323 323 323 323 323 323 323 323
317 319 319 319 320 322 324 325 327 330 333 343 346 347 346 348 347 349 349 349 345 328 331 339 342 342 341 341 341 342 343 340 336 329 323 322 323 324 325 324 323 322 322 321 321 322 322 322 322
317 319 318 319 322 328 325 327 331 333 343 346 346 345 347 346 346 349 349 348 341 326 329 336 341 342 341 341 341 342 343 343 340 336 328 323 322 322 322 322 322 322 322 321 320 320 320 320 320
316 315 318 319 322 325 326 325 330 327 330 332 343 340 346 348 347 348 348 348 349 342 327 332 338 341 341 340 340 341 343 343 344 341 337 328 324 322 322 322 322 322 322 321 320 320 320 320 320
318 315 319 320 323 323 324 325 327 326 328 335 339 330 332 345 348 348 348 349 350 349 348 342 332 337 339 340 340 340 341 342 343 344 342 339 331 324 322 322 322 322 322 322 321 320 320 320 320
317 318 317 319 322 322 323 322 323 325 327 329 332 333 333 333 342 348 348 350 350 349 348 343 342 331 334 336 337 338 338 338 340 343 344 342 340 333 326 322 322 322 323 322 321 321 320 320 320
314 317 325 322 320 320 322 322 321 322 322 327 329 329 328 330 329 329 345 348 349 350 348 347 345 336 326 331 334 335 335 335 337 340 343 344 343 340 334 327 323 322 323 323 322 321 321 320 320
313 315 318 319 321 322 322 321 321 323 321 322 322 324 327 326 326 327 340 348 348 349 349 347 346 341 329 326 329 333 334 333 333 336 340 342 342 342 341 338 329 323 322 323 323 322 321 321 321
313 314 316 318 320 319 321 328 322 324 324 323 322 322 322 324 324 325 324 323 336 348 348 347 346 346 342 333 329 328 331 332 333 332 337 342 343 343 341 340 336 327 323 324 324 323 322 321 321
311 313 316 317 318 318 319 318 319 321 321 321 320 320 321 321 322 323 325 323 322 326 327 334 341 348 346 343 341 334 330 331 332 332 331 331 340 343 343 343 341 336 328 323 323 324 324 322 322
314 314 315 317 317 318 317 316 318 321 321 321 320 319 320 320 320 320 321 322 321 326 326 330 336 348 348 346 344 343 339 339 341 343 344 337 331 329 333 339 341 340 335 328 322 322 322 322 320
314 313 312 315 317 316 319 316 318 321 321 320 319 319 319 320 320 320 320 321 321 324 325 330 342 347 349 348 348 346 346 345 344 344 346 347 341 334 332 329 328 332 334 334 331 326 324 322 320
314 312 312 314 315 317 317 317 317 319 320 320 320 319 319 320 320 320 320 320 322 324 325 331 339 351 351 349 349 348 348 348 347 348 347 347 347 346 343 337 331 329 330 332 337 335 333 332 322
312 314 315 316 316 317 316 316 316 320 318 318 319 319 319 320 320 320 320 320 321 322 322 322 325 334 342 350 349 350 348 349 350 350 350 348 347 347 346 344 342 338 331 332 336 338 336 337 330
313 315 316 315 317 316 315 314 316 319 318 318 319 319 319 320 320 320 320 320 321 321 322 322 323 322 323 331 340 345 347 348 348 347 348 349 350 348 346 344 344 342 340 335 336 341 339 339 336
315 316 316 317 316 316 316 316 317 316 318 317 319 319 319 319 320 320 320 320 320 323 322 323 323 322 322 322 322 321 320 325 340 341 339 342 343 345 349 348 345 343 342 342 337 340 341 339 338
317 316 316 316 316 316 316 317 314 315 315 317 318 319 319 320 320 320 320 321 322 323 323 322 322 322 322 321 321 321 320 320 320 322 331 339 343 344 346 347 348 347 346 343 341 338 340 340 339
316 316 316 317 318 317 317 315 317 317 318 319 319 320 320 320 320 319 321 322 322 322 322 322 321 321 320 320 320 320 320 320 320 320 320 322 325 336 342 342 344 345 349 347 345 342 340 340 338
315 316 317 318 317 315 316 314 314 316 318 317 319 320 319 320 320 320 322 321 321 321 320 320 320 320 320 320 320 320 321 321 321 321 321 321 322 325 325 328 340 343 342 344 345 345 343 341 340
317 317 317 318 317 316 315 314 313 317 317 316 316 323 324 322 320 321 321 321 320 320 320 319 319 320 320 320 319 319 320 321 320 320 319 319 320 321 321 321 323 324 337 341 343 344 342 341 341
317 317 314 313 312 314 314 316 314 316 317 317 320 320 322 319 321 321 320 320 320 319 319 319 319 318 318 318 317 317 317 318 318 320 321 322 323 321 321 323 324 323 323 327 340 341 340 340 341
315 312 313 314 313 314 315 317 314 316 319 321 317 318 319 320 320 320 320 319 319 319 318 318 318 317 317 316 317 317 317 317 318 321 321 321 321 323 321 320 323 328 328 329 328 335 340 340 339
319 314 313 317 316 316 320 321 321 322 321 319 319 318 319 319 319 319 319 319 318 318 318 317 317 316 316 316 316 316 317 318 321 321 322 322 320 318 318 320 323 325 331 332 332 335 332 337 340
320 320 315 318 319 319 319 319 318 321 321 320 319 317 318 319 319 319 319 319 319 318 317 317 316 316 316 316 317 317 318 321 322 322 322 321 318 318 317 318 321 325 328 331 332 332 331 334 335
321 320 322 317 321 323 321 322 321 323 321 319 318 319 319 318 318 318 318 318 317 316 316 316 316 316 316 317 317 318 318 319 320 319 318 317 315 315 318 319 318 319 321 322 324 328 329 327 331
322 320 320 319 318 319 321 319 320 322 320 320 318 319 320 320 319 319 319 317 316 315 316 316 317 317 317 317 317 316 316 317 318 318 318 316 315 315 314 312 317 317 318 320 321 321 322 324 325
317 320 322 325 323 317 315 318 319 319 319 318 318 319 318 317 317 317 317 317 317 317 317 317 317 317 317 317 318 319 319 318 318 317 317 317 316 315 314 312 315 316 317 317 320 321 321 325 325
Wind_Speed
9 9 13 9 2 4 4 6 4 8 6 4 19 12 8 5 3 3 19 22 21 27 27 28 26 24 24 24 22 22 20 18 17 17 17 18 20 21 20 19 17 16 13 12 11 11 11 12 12
9 10 7 1 3 1 5 6 11 10 10 19 25 23 15 4 8 18 26 18 24 24 26 28 27 24 24 24 22 21 19 17 17 17 18 19 20 20 19 18 17 15 13 12 11 11 11 11 10
11 10 4 3 3 5 5 5 6 16 19 2 8 10 5 6 17 18 16 21 24 25 25 27 27 25 24 23 21 20 18 16 16 17 17 18 18 18 17 16 14 13 12 11 10 10 10 9 9
6 2 4 2 6 6 7 11 16 20 22 13 20 5 10 7 15 16 20 16 21 23 24 26 27 25 24 23 22 20 19 16 16 17 17 17 17 17 16 14 13 12 11 10 9 9 9 9 9
6 4 1 4 4 6 9 15 26 14 1 5 15 5 9 11 13 21 16 11 10 22 23 26 26 25 23 22 21 20 18 17 15 15 16 17 17 16 16 14 13 12 11 10 10 10 9 9 8
3 2 1 6 4 9 6 24 15 6 18 19 19 14 12 17 16 17 12 8 10 17 22 24 25 25 23 22 21 19 18 17 16 14 14 15 15 15 14 13 12 11 11 10 10 10 10 9 8
5 3 5 4 4 9 3 24 4 9 12 4 18 6 14 22 17 15 11 13 13 13 16 21 24 25 24 23 22 21 20 19 17 16 14 13 14 14 14 14 13 12 11 11 11 10 9 9 8
6 3 3 4 4 8 5 23 15 16 3 21 22 4 7 16 21 18 11 15 18 11 10 13 19 24 25 24 23 22 22 21 20 19 17 16 15 14 14 14 14 13 12 12 12 11 10 9 8
8 2 6 5 5 2 18 7 20 10 6 17 14 20 18 17 16 22 17 20 21 17 12 12 12 20 24 25 25 24 23 23 23 23 23 21 19 18 17 16 15 15 15 14 14 13 12 11 10
7 9 17 6 6 5 13 8 13 10 10 8 23 23 18 16 13 14 20 22 24 23 20 15 14 14 23 25 26 26 25 26 26 27 27 26 24 22 20 19 19 18 17 16 16 16 15 14 13
8 10 12 6 15 26 11 21 12 5 4 4 11 6 13 16 15 13 16 19 21 23 23 18 15 17 19 24 26 27 28 27 27 28 29 29 28 26 25 24 24 23 22 22 21 20 19 17 17
5 8 14 15 26 9 10 30 20 16 21 8 6 10 5 9 11 12 9 9 12 23 22 23 23 24 20 21 22 24 27 27 28 28 30 31 31 31 31 30 28 27 27 26 25 24 23 21 21
7 9 19 30 32 26 27 22 16 15 18 7 5 5 9 6 7 9 12 9 4 8 14 23 27 28 25 24 22 23 25 25 25 26 27 30 32 33 32 32 31 30 30 31 30 29 27 27 26
13 26 24 24 27 26 12 15 21 20 22 18 16 13 6 7 9 6 9 15 14 3 6 15 25 31 30 27 24 21 20 19 19 19 19 29 31 33 35 35 35 35 34 33 33 34 33 31 30
24 6 9 19 22 11 20 8 7 21 17 19 23 22 15 13 12 8 9 8 13 13 9 7 18 30 30 26 23 23 22 19 18 21 21 20 24 32 35 36 39 40 37 36 35 35 35 35 34
6 6 6 7 15 15 12 14 8 19 21 23 26 23 20 18 13 13 13 11 10 9 7 10 10 19 26 25 25 24 22 25 26 25 24 24 24 25 27 31 37 40 38 37 36 35 34 35 37
4 3 4 5 8 5 8 7 11 30 24 21 23 28 28 18 14 14 13 11 11 10 6 8 11 11 15 21 25 24 22 22 20 21 24 27 28 30 31 31 32 32 38 41 39 38 36 35 35
4 3 4 5 3 4 8 9 13 21 23 21 25 22 25 24 23 20 19 18 16 16 14 10 10 11 12 15 17 21 25 29 26 27 28 30 34 34 35 36 36 36 36 40 44 42 40 40 38
4 4 6 6 7 8 11 16 22 20 13 17 22 25 26 25 25 24 21 22 18 19 20 16 12 8 7 9 12 14 18 15 19 25 25 28 32 33 39 42 41 41 41 43 44 46 45 44 41
7 8 9 8 6 6 3 6 6 5 8 20 22 23 24 25 25 28 28 22 22 22 22 22 22 17 14 14 16 20 24 27 25 22 23 25 29 33 37 42 45 48 47 46 46 48 50 51 47
10 9 8 9 4 1 2 6 4 4 7 16 22 26 30 32 35 29 23 27 27 25 22 19 15 14 11 11 12 14 18 23 27 30 30 29 26 26 32 38 44 48 49 50 48 52 50 54 54
8 9 8 4 4 4 4 5 4 5 6 5 16 22 26 29 34 31 34 30 25 19 14 10 8 8 9 12 13 14 16 20 23 25 30 32 32 31 29 29 35 44 45 50 53 52 54 54 52
10 8 5 3 2 2 4 3 7 1 6 10 9 21 29 32 35 37 35 27 20 17 13 9 6 6 6 12 17 19 18 19 23 28 32 32 32 36 37 38 38 37 41 49 51 54 55 56 57
3 3 6 5 4 1 5 5 4 3 5 6 5 11 16 19 30 36 28 23 19 13 10 9 8 9 12 16 19 25 27 29 30 28 28 28 32 34 34 35 35 35 37 42 47 53 55 57 58
8 6 3 3 2 5 5 2 7 6 7 7 6 18 14 21 29 28 25 19 15 12 11 10 11 14 17 19 22 24 25 27 29 27 28 31 34 36 38 40 40 38 37 36 38 45 52 54 54
2 6 5 4 4 4 3 4 4 3 7 18 10 21 25 22 18 15 15 13 12 12 13 15 18 22 21 21 23 23 22 23 28 28 27 29 34 36 34 34 33 38 38 35 37 37 41 49 51
4 3 4 5 3 4 4 5 6 6 7 11 16 10 11 11 11 10 11 12 14 16 19 23 23 24 23 23 24 22 23 26 27 28 30 32 34 37 36 33 32 31 33 37 39 40 39 40 45
2 3 3 3 4 4 4 4 5 3 4 7 7 9 10 5 5 6 10 13 17 20 23 23 24 23 22 25 23 22 24 26 28 30 31 30 33 36 34 36 36 35 34 35 37 42 43 41 45
5 4 3 2 4 5 2 5 6 5 4 1 7 13 10 11 13 15 15 15 17 19 19 21 20 20 21 24 27 28 27 28 29 31 32 33 29 31 35 37 39 39 39 40 40 39 39 42 46
2 2 2 3 4 1 4 6 6 5 6 6 13 20 18 15 12 12 12 9 7 5 2 1 6 14 17 19 19 20 22 25 28 31 30 29 31 31 33 34 35 38 40 41 41 39 36 39 42
Wind_Direction
296 306 315 307 36 70 256 263 251 303 297 27 90 107 121 94 157 172 139 160 164 165 163 160 161 160 155 153 151 150 150 151 151 149 145 144 144 144 144 145 145 143 140 138 137 137 138 136 134
300 309 321 257 131 212 272 243 254 266 251 98 91 83 58 57 87 128 151 163 167 166 165 164 163 163 159 157 154 153 152 150 148 147 146 145 146 146 147 148 147 145 144 143 142 144 146 144 141
297 308 282 150 183 195 233 231 277 297 304 55 121 64 74 93 116 137 163 156 165 166 168 168 166 166 164 160 159 157 156 153 149 151 151 150 150 152 152 152 151 149 148 146 148 152 153 153 149
291 257 241 167 229 253 242 286 280 283 293 87 113 56 82 145 154 149 144 149 164 167 171 171 170 169 169 167 165 164 164 161 158 157 158 160 160 161 160 159 158 157 156 156 160 164 164 164 161
275 256 261 261 241 259 254 278 283 269 84 51 104 103 98 130 145 138 134 136 177 171 174 175 174 175 174 173 172 171 171 171 167 166 167 170 171 172 172 170 171 170 170 169 173 176 177 177 174
234 226 111 249 248 256 314 296 312 235 108 103 101 119 110 134 138 137 134 117 126 172 176 178 179 181 182 181 180 180 180 181 181 178 179 181 183 183 183 182 182 183 183 183 186 189 190 190 187
185 116 220 233 271 297 261 341 339 360 126 123 131 106 132 148 147 148 160 156 148 147 173 183 186 187 189 190 189 188 190 191 191 193 191 193 195 195 193 193 194 195 196 196 198 202 205 204 203
219 109 244 226 187 267 354 330 300 352 11 130 125 131 133 139 162 158 172 178 165 165 168 182 194 195 195 196 197 198 197 198 199 200 203 202 203 207 211 206 204 205 208 211 211 211 214 218 218
207 247 232 219 177 225 323 326 332 356 17 116 141 133 142 138 142 161 178 184 180 178 193 185 190 204 203 203 203 204 206 207 206 206 206 210 212 211 210 218 220 218 216 218 220 221 223 225 226
184 214 235 235 260 152 296 292 313 358 36 360 137 148 148 157 173 168 184 194 200 195 197 207 202 202 205 208 208 210 210 211 212 213 212 213 216 219 221 219 219 222 227 229 226 225 225 226 226
205 215 229 320 272 281 288 307 309 309 310 110 358 126 192 180 175 191 174 197 216 216 205 207 224 210 205 213 213 212 214 216 217 218 219 219 220 223 225 225 222 222 221 225 227 228 230 228 226
230 214 216 228 243 275 308 285 298 280 273 280 306 299 154 153 169 196 179 146 200 225 232 230 239 220 209 210 215 221 222 221 223 223 223 224 225 226 229 230 230 229 228 228 228 229 231 230 228
213 247 222 231 241 240 239 239 249 260 272 282 283 300 258 211 195 218 230 259 309 190 220 237 246 233 217 215 214 218 222 226 231 234 238 239 236 236 237 238 238 237 235 234 233 233 232 233 231
212 227 236 236 231 236 221 246 238 236 258 272 269 273 247 218 222 217 244 247 288 231 222 214 227 231 215 218 218 221 219 226 228 236 249 245 246 246 245 248 247 245 241 241 241 240 239 238 238
228 229 236 243 239 229 233 239 225 233 245 262 268 265 264 239 222 223 239 247 265 271 288 174 208 225 217 224 230 230 232 234 245 254 251 256 254 254 252 252 253 251 248 247 247 249 249 248 244
172 154 221 252 216 227 185 252 235 243 236 247 257 263 259 247 237 234 239 245 240 236 166 145 181 215 230 230 234 238 249 247 247 248 256 258 259 259 260 257 255 256 256 255 256 256 257 254 250
22 221 198 275 185 206 181 246 242 248 243 240 248 255 246 237 221 225 233 243 223 224 224 180 176 186 211 228 234 237 246 257 266 270 267 263 258 259 260 260 261 262 257 254 252 251 249 251 249
232 232 272 239 296 245 259 252 249 232 229 227 242 237 214 217 218 231 234 239 214 211 199 198 179 178 190 210 231 239 248 251 256 261 263 273 272 270 260 258 259 262 260 256 252 250 249 249 250
236 252 266 276 258 220 238 252 237 222 214 213 213 206 210 218 233 241 228 234 216 201 210 208 208 197 199 219 242 258 272 273 264 265 268 268 272 270 271 269 265 259 256 260 257 251 251 251 250
249 255 263 283 223 200 330 305 224 207 203 213 213 222 227 229 232 234 237 212 200 192 197 211 221 226 241 256 265 275 280 281 278 273 275 277 276 269 267 269 272 271 266 258 257 254 248 250 251
245 233 259 240 250 74 30 331 1 312 239 202 224 234 233 235 230 226 196 190 188 188 192 200 209 227 256 273 278 283 283 282 283 281 278 274 277 284 274 269 271 271 272 270 263 256 252 248 249
236 203 209 243 296 253 128 269 297 260 272 284 279 271 254 246 233 215 185 177 181 181 183 195 214 237 253 275 283 287 293 299 301 297 292 285 279 278 280 286 278 272 271 271 271 266 257 254 249
225 231 229 210 204 57 333 90 274 261 308 283 295 313 291 267 230 204 178 174 174 174 177 197 216 218 259 283 292 299 301 297 296 297 300 297 290 285 286 281 277 283 281 272 272 270 265 262 258
219 179 46 50 102 311 261 148 266 270 270 289 319 343 320 249 194 164 162 164 167 177 203 222 222 244 268 283 292 297 293 295 299 298 297 301 302 301 297 297 294 287 283 281 278 273 271 267 264
55 53 5 327 327 214 229 324 234 294 325 283 142 85 100 151 145 151 157 165 175 190 206 228 252 270 281 285 285 281 284 290 288 288 293 296 302 304 306 304 297 296 291 287 283 277 273 270 266
318 133 148 214 213 256 344 225 249 90 359 35 106 118 129 140 148 162 171 184 202 222 239 258 277 286 276 272 273 273 273 276 278 280 280 287 297 304 312 316 305 296 297 294 292 289 277 272 271
326 59 200 113 1 79 252 284 344 10 51 36 52 67 128 152 173 198 217 231 253 259 269 271 270 253 257 263 262 259 270 266 264 271 278 283 292 296 305 315 317 302 296 294 288 284 282 276 267
116 288 20 18 158 213 271 228 210 46 33 13 50 43 10 341 290 270 262 260 259 263 269 265 247 255 257 257 262 264 269 267 269 275 282 287 297 302 306 312 314 322 311 301 292 287 281 277 271
13 334 360 92 139 174 189 245 183 128 123 344 310 328 325 310 302 306 302 315 293 276 271 256 247 249 256 268 269 266 268 273 275 278 283 289 295 301 307 309 310 311 315 318 304 298 288 276 273
101 360 111 176 270 254 158 261 279 22 336 316 325 328 348 50 50 50 60 52 54 48 55 350 268 256 258 262 262 266 272 275 277 283 283 285 291 298 304 312 310 307 310 314 309 294 301 277 268